Time,TemperatureF,DewpointF,PressureIn,WindDirection,WindDirectionDegrees,WindSpeedMPH,WindSpeedGustMPH,Humidity,HourlyPrecipIn,Conditions,Clouds,dailyrainin,SolarRadiationWatts/m^2,SoftwareType,DateUTC
2013-01-25 00:22:00,42.0,21.0,-100.00,NNW,342,3.0,9.0,43,0.00,,,0.00,34.000000,,2013-01-25 00:22:00,
2013-01-25 00:32:00,42.0,21.0,-100.00,NNW,342,3.0,9.0,43,0.00,,,0.00,34.000000,,2013-01-25 00:32:00,
2013-01-25 00:42:00,42.0,21.0,-100.00,NNW,342,3.0,9.0,43,0.00,,,0.00,34.000000,,2013-01-25 00:42:00,
2013-01-25 00:52:00,42.0,21.0,-100.00,NNW,342,3.0,9.0,43,0.00,,,0.00,34.000000,,2013-01-25 00:52:00,
2013-01-25 01:22:00,42.0,24.0,-100.00,NNW,344,3.0,11.0,49,0.00,,,0.00,1.000000,,2013-01-25 01:22:00,
2013-01-25 01:32:00,42.0,24.0,-100.00,NNW,344,3.0,11.0,49,0.00,,,0.00,1.000000,,2013-01-25 01:32:00,
2013-01-25 01:42:00,42.0,24.0,-100.00,NNW,344,3.0,11.0,49,0.00,,,0.00,1.000000,,2013-01-25 01:42:00,
2013-01-25 01:52:00,42.0,24.0,-100.00,NNW,344,3.0,11.0,49,0.00,,,0.00,1.000000,,2013-01-25 01:52:00,
2013-01-25 02:22:00,41.0,24.0,-100.00,WNW,301,3.0,6.0,50,0.00,,,0.00,0.000000,,2013-01-25 02:22:00,
2013-01-25 02:32:00,41.0,24.0,-100.00,WNW,301,3.0,6.0,50,0.00,,,0.00,0.000000,,2013-01-25 02:32:00,
2013-01-25 02:42:00,41.0,24.0,-100.00,WNW,301,3.0,6.0,50,0.00,,,0.00,0.000000,,2013-01-25 02:42:00,
2013-01-25 02:52:00,41.0,24.0,-100.00,WNW,301,3.0,6.0,50,0.00,,,0.00,0.000000,,2013-01-25 02:52:00,
2013-01-25 03:22:00,40.0,24.0,-100.00,WNW,287,3.0,5.0,52,0.00,,,0.00,0.000000,,2013-01-25 03:22:00,
2013-01-25 03:33:00,40.0,24.0,-100.00,WNW,287,3.0,5.0,52,0.00,,,0.00,0.000000,,2013-01-25 03:33:00,
2013-01-25 03:42:00,40.0,24.0,-100.00,WNW,287,3.0,5.0,52,0.00,,,0.00,0.000000,,2013-01-25 03:42:00,
2013-01-25 03:52:00,40.0,24.0,-100.00,WNW,287,3.0,5.0,52,0.00,,,0.00,0.000000,,2013-01-25 03:52:00,
2013-01-25 04:22:00,37.0,23.0,-100.00,NNW,332,3.0,11.0,57,0.00,,,0.00,0.000000,,2013-01-25 04:22:00,
2013-01-25 04:32:00,37.0,23.0,-100.00,NNW,332,3.0,11.0,57,0.00,,,0.00,0.000000,,2013-01-25 04:32:00,
2013-01-25 04:42:00,37.0,23.0,-100.00,NNW,332,3.0,11.0,57,0.00,,,0.00,0.000000,,2013-01-25 04:42:00,
2013-01-25 04:51:00,37.0,23.0,-100.00,NNW,332,3.0,11.0,57,0.00,,,0.00,0.000000,,2013-01-25 04:51:00,
2013-01-25 05:22:00,35.0,22.0,-100.00,East,80,0.0,4.0,59,0.00,,,0.00,0.000000,,2013-01-25 05:22:00,
2013-01-25 05:32:00,35.0,22.0,-100.00,East,80,0.0,4.0,59,0.00,,,0.00,0.000000,,2013-01-25 05:32:00,
2013-01-25 05:43:00,35.0,22.0,-100.00,East,80,0.0,4.0,59,0.00,,,0.00,0.000000,,2013-01-25 05:43:00,
2013-01-25 05:52:00,35.0,22.0,-100.00,East,80,0.0,4.0,59,0.00,,,0.00,0.000000,,2013-01-25 05:52:00,
2013-01-25 06:21:00,35.0,23.0,-100.00,NE,49,2.0,2.0,61,0.00,,,0.00,0.000000,,2013-01-25 06:21:00,
2013-01-25 06:32:00,35.0,23.0,-100.00,NE,49,2.0,2.0,61,0.00,,,0.00,0.000000,,2013-01-25 06:32:00,
2013-01-25 06:42:00,35.0,23.0,-100.00,NE,49,2.0,2.0,61,0.00,,,0.00,0.000000,,2013-01-25 06:42:00,
2013-01-25 06:52:00,35.0,23.0,-100.00,NE,49,2.0,2.0,61,0.00,,,0.00,0.000000,,2013-01-25 06:52:00,
2013-01-25 07:21:00,33.0,22.0,-100.00,South,180,0.0,3.0,63,0.00,,,0.00,0.000000,,2013-01-25 07:21:00,
2013-01-25 07:32:00,33.0,22.0,-100.00,South,180,0.0,3.0,63,0.00,,,0.00,0.000000,,2013-01-25 07:32:00,
2013-01-25 07:42:00,33.0,22.0,-100.00,South,180,0.0,3.0,63,0.00,,,0.00,0.000000,,2013-01-25 07:42:00,
2013-01-25 07:51:00,33.0,22.0,-100.00,South,180,0.0,3.0,63,0.00,,,0.00,0.000000,,2013-01-25 07:51:00,
2013-01-25 08:21:00,30.0,21.0,-100.00,SW,221,2.0,4.0,69,0.00,,,0.00,0.000000,,2013-01-25 08:21:00,
2013-01-25 08:32:00,30.0,21.0,-100.00,SW,221,2.0,4.0,69,0.00,,,0.00,0.000000,,2013-01-25 08:32:00,
2013-01-25 08:41:00,30.0,21.0,-100.00,SW,221,2.0,4.0,69,0.00,,,0.00,0.000000,,2013-01-25 08:41:00,
2013-01-25 08:52:00,30.0,21.0,-100.00,SW,221,2.0,4.0,69,0.00,,,0.00,0.000000,,2013-01-25 08:52:00,
2013-01-25 09:21:00,28.0,21.0,-100.00,SSW,196,4.0,4.0,75,0.00,,,0.00,0.000000,,2013-01-25 09:21:00,
2013-01-25 09:31:00,28.0,21.0,-100.00,SSW,196,4.0,4.0,75,0.00,,,0.00,0.000000,,2013-01-25 09:31:00,
2013-01-25 09:42:00,28.0,21.0,-100.00,SSW,196,4.0,4.0,75,0.00,,,0.00,0.000000,,2013-01-25 09:42:00,
2013-01-25 09:51:00,28.0,21.0,-100.00,SSW,196,4.0,4.0,75,0.00,,,0.00,0.000000,,2013-01-25 09:51:00,
2013-01-25 10:21:00,28.0,21.0,-100.00,SSW,192,3.0,5.0,76,0.00,,,0.00,0.000000,,2013-01-25 10:21:00,
2013-01-25 10:32:00,28.0,21.0,-100.00,SSW,192,3.0,5.0,76,0.00,,,0.00,0.000000,,2013-01-25 10:32:00,
2013-01-25 10:42:00,28.0,21.0,-100.00,SSW,192,3.0,5.0,76,0.00,,,0.00,0.000000,,2013-01-25 10:42:00,
2013-01-25 10:51:00,28.0,21.0,-100.00,SSW,192,3.0,5.0,76,0.00,,,0.00,0.000000,,2013-01-25 10:51:00,
2013-01-25 11:22:00,27.0,20.0,-100.00,SSW,199,1.0,6.0,75,0.00,,,0.00,0.000000,,2013-01-25 11:22:00,
2013-01-25 11:32:00,27.0,20.0,-100.00,SSW,199,1.0,6.0,75,0.00,,,0.00,0.000000,,2013-01-25 11:32:00,
2013-01-25 11:42:00,27.0,20.0,-100.00,SSW,199,1.0,6.0,75,0.00,,,0.00,0.000000,,2013-01-25 11:42:00,
2013-01-25 11:52:00,27.0,20.0,-100.00,SSW,199,1.0,6.0,75,0.00,,,0.00,0.000000,,2013-01-25 11:52:00,
2013-01-25 12:22:00,27.0,20.0,-100.00,NE,39,3.0,4.0,73,0.00,,,0.00,0.000000,,2013-01-25 12:22:00,
2013-01-25 12:32:00,27.0,20.0,-100.00,NE,39,3.0,4.0,73,0.00,,,0.00,0.000000,,2013-01-25 12:32:00,
2013-01-25 12:42:00,27.0,20.0,-100.00,NE,39,3.0,4.0,73,0.00,,,0.00,0.000000,,2013-01-25 12:42:00,
2013-01-25 12:53:00,27.0,20.0,-100.00,NE,39,3.0,4.0,73,0.00,,,0.00,0.000000,,2013-01-25 12:53:00,
2013-01-25 13:22:00,26.0,19.0,-100.00,NNE,27,3.0,7.0,73,0.00,,,0.00,0.000000,,2013-01-25 13:22:00,
2013-01-25 13:32:00,26.0,19.0,-100.00,NNE,27,3.0,7.0,73,0.00,,,0.00,0.000000,,2013-01-25 13:32:00,
2013-01-25 13:42:00,26.0,19.0,-100.00,NNE,27,3.0,7.0,73,0.00,,,0.00,0.000000,,2013-01-25 13:42:00,
2013-01-25 13:52:00,26.0,19.0,-100.00,NNE,27,3.0,7.0,73,0.00,,,0.00,0.000000,,2013-01-25 13:52:00,
2013-01-25 14:23:00,26.0,18.0,-100.00,North,1,4.0,6.0,70,0.00,,,0.00,0.000000,,2013-01-25 14:23:00,
2013-01-25 14:32:00,26.0,18.0,-100.00,North,1,4.0,6.0,70,0.00,,,0.00,0.000000,,2013-01-25 14:32:00,
2013-01-25 14:42:00,26.0,18.0,-100.00,North,1,4.0,6.0,70,0.00,,,0.00,0.000000,,2013-01-25 14:42:00,
2013-01-25 14:52:00,26.0,18.0,-100.00,North,1,4.0,6.0,70,0.00,,,0.00,0.000000,,2013-01-25 14:52:00,
2013-01-25 15:22:00,28.0,18.0,-100.00,NNW,332,3.0,7.0,67,0.00,,,0.00,11.000000,,2013-01-25 15:22:00,
2013-01-25 15:32:00,28.0,18.0,-100.00,NNW,332,3.0,7.0,67,0.00,,,0.00,11.000000,,2013-01-25 15:32:00,
2013-01-25 15:42:00,28.0,18.0,-100.00,NNW,332,3.0,7.0,67,0.00,,,0.00,11.000000,,2013-01-25 15:42:00,
2013-01-25 15:52:00,28.0,18.0,-100.00,NNW,332,3.0,7.0,67,0.00,,,0.00,11.000000,,2013-01-25 15:52:00,
2013-01-25 16:22:00,36.0,21.0,-100.00,NW,324,3.0,5.0,53,0.00,,,0.00,150.000000,,2013-01-25 16:22:00,
2013-01-25 16:32:00,36.0,21.0,-100.00,NW,324,3.0,5.0,53,0.00,,,0.00,150.000000,,2013-01-25 16:32:00,
2013-01-25 16:43:00,36.0,21.0,-100.00,NW,324,3.0,5.0,53,0.00,,,0.00,150.000000,,2013-01-25 16:43:00,
2013-01-25 16:52:00,36.0,21.0,-100.00,NW,324,3.0,5.0,53,0.00,,,0.00,150.000000,,2013-01-25 16:52:00,
2013-01-25 17:22:00,43.0,22.0,-100.00,West,269,2.0,6.0,43,0.00,,,0.00,370.000000,,2013-01-25 17:22:00,
2013-01-25 17:32:00,43.0,22.0,-100.00,West,269,2.0,6.0,43,0.00,,,0.00,370.000000,,2013-01-25 17:32:00,
2013-01-25 17:43:00,43.0,22.0,-100.00,West,269,2.0,6.0,43,0.00,,,0.00,370.000000,,2013-01-25 17:43:00,
2013-01-25 17:52:00,43.0,22.0,-100.00,West,269,2.0,6.0,43,0.00,,,0.00,370.000000,,2013-01-25 17:52:00,
2013-01-25 18:23:00,44.0,23.0,-100.00,WNW,302,2.0,4.0,44,0.00,,,0.00,371.000000,,2013-01-25 18:23:00,
2013-01-25 18:33:00,44.0,23.0,-100.00,WNW,302,2.0,4.0,44,0.00,,,0.00,371.000000,,2013-01-25 18:33:00,
2013-01-25 18:42:00,44.0,23.0,-100.00,WNW,302,2.0,4.0,44,0.00,,,0.00,371.000000,,2013-01-25 18:42:00,
2013-01-25 18:52:00,44.0,23.0,-100.00,WNW,302,2.0,4.0,44,0.00,,,0.00,371.000000,,2013-01-25 18:52:00,
2013-01-25 19:22:00,45.0,23.0,-100.00,WNW,302,4.0,8.0,42,0.00,,,0.00,379.000000,,2013-01-25 19:22:00,
2013-01-25 19:32:00,45.0,23.0,-100.00,WNW,302,4.0,8.0,42,0.00,,,0.00,379.000000,,2013-01-25 19:32:00,
2013-01-25 19:42:00,45.0,23.0,-100.00,WNW,302,4.0,8.0,42,0.00,,,0.00,379.000000,,2013-01-25 19:42:00,
2013-01-25 19:52:00,45.0,23.0,-100.00,WNW,302,4.0,8.0,42,0.00,,,0.00,379.000000,,2013-01-25 19:52:00,
2013-01-25 20:22:00,45.0,23.0,-100.00,North,351,4.0,8.0,42,0.00,,,0.00,457.000000,,2013-01-25 20:22:00,
2013-01-25 20:32:00,45.0,23.0,-100.00,North,351,4.0,8.0,42,0.00,,,0.00,457.000000,,2013-01-25 20:32:00,
2013-01-25 20:42:00,45.0,23.0,-100.00,North,351,4.0,8.0,42,0.00,,,0.00,457.000000,,2013-01-25 20:42:00,
2013-01-25 20:52:00,45.0,23.0,-100.00,North,351,4.0,8.0,42,0.00,,,0.00,457.000000,,2013-01-25 20:52:00,
2013-01-25 21:23:00,50.0,23.0,-100.00,NW,315,5.0,11.0,35,0.00,,,0.00,539.000000,,2013-01-25 21:23:00,
2013-01-25 21:33:00,50.0,23.0,-100.00,NW,315,5.0,11.0,35,0.00,,,0.00,539.000000,,2013-01-25 21:33:00,
2013-01-25 21:42:00,50.0,23.0,-100.00,NW,315,5.0,11.0,35,0.00,,,0.00,539.000000,,2013-01-25 21:42:00,
2013-01-25 21:52:00,50.0,23.0,-100.00,NW,315,5.0,11.0,35,0.00,,,0.00,539.000000,,2013-01-25 21:52:00,
2013-01-25 22:22:00,50.0,21.0,-100.00,NW,315,5.0,8.0,31,0.00,,,0.00,319.000000,,2013-01-25 22:22:00,
2013-01-25 22:33:00,50.0,21.0,-100.00,NW,315,5.0,8.0,31,0.00,,,0.00,319.000000,,2013-01-25 22:33:00,
2013-01-25 22:42:00,50.0,21.0,-100.00,NW,315,5.0,8.0,31,0.00,,,0.00,319.000000,,2013-01-25 22:42:00,
2013-01-25 22:52:00,50.0,21.0,-100.00,NW,315,5.0,8.0,31,0.00,,,0.00,319.000000,,2013-01-25 22:52:00,
2013-01-25 23:22:00,49.0,20.0,-100.00,North,9,4.0,8.0,32,0.00,,,0.00,35.000000,,2013-01-25 23:22:00,
2013-01-25 23:32:00,49.0,20.0,-100.00,North,9,4.0,8.0,32,0.00,,,0.00,35.000000,,2013-01-25 23:32:00,
2013-01-25 23:42:00,49.0,20.0,-100.00,North,9,4.0,8.0,32,0.00,,,0.00,35.000000,,2013-01-25 23:42:00,
2013-01-25 23:52:00,49.0,20.0,-100.00,North,9,4.0,8.0,32,0.00,,,0.00,35.000000,,2013-01-25 23:52:00,